Location: Caltech
(34.1382°N, 118.1253°W)
Time: 15:43:59
(UTC-07:00)

SEDSat Delta rocket - Visible Passes

Search period start: 25 May 2016 00:00
Search period end: 04 June 2016 00:00
Orbit: 533 x 1003 km, 31.4° (Epoch: 25 May)

Date Brightness Start Highest point End Pass type
(mag) Time Alt. Az. Time Alt. Az. Time Alt. Az.
25 May 6.3 01:25:31 12° E 01:25:31 12° E 01:25:58 10° E visible
25 May 3.9 03:05:38 61° SSW 03:06:15 64° S 03:12:47 10° E visible
25 May 4.0 04:46:09 10° W 04:52:53 68° S 04:59:05 10° ESE visible
26 May 4.5 02:27:18 49° ESE 02:27:18 49° ESE 02:32:21 10° E visible
26 May 4.0 04:07:25 20° W 04:12:22 70° S 04:18:47 10° ESE visible
27 May 5.4 01:49:01 26° E 01:49:01 26° E 01:51:52 10° E visible
27 May 3.9 03:29:08 39° WSW 03:31:50 71° S 03:38:26 10° E visible
27 May 4.2 05:11:51 10° W 05:18:22 51° SSW 05:24:26 10° ESE visible
28 May 6.3 01:10:49 12° E 01:10:49 12° E 01:11:19 10° E visible
28 May 3.9 02:50:57 70° SSW 02:51:17 72° S 02:58:00 10° E visible
28 May 4.1 04:31:15 10° W 04:37:53 55° SSW 04:44:12 10° ESE visible
29 May 4.6 02:12:55 45° ESE 02:12:55 45° ESE 02:17:32 10° E visible
29 May 4.1 03:53:04 23° W 03:57:23 59° SSW 04:03:54 10° ESE visible
30 May 5.8 01:35:04 20° E 01:35:04 20° E 01:37:00 10° E visible
30 May 4.0 03:15:14 49° WSW 03:16:51 63° S 03:23:30 10° ESE visible
30 May 4.7 04:57:11 10° W 05:03:11 34° SSW 05:08:58 10° SE visible
31 May 4.3 02:37:42 53° SE 02:37:42 53° SE 02:43:04 10° ESE visible
31 May 4.5 04:17:53 16° W 04:22:44 38° SSW 04:28:48 10° SE visible
31 May 5.5 22:18:04 10° SW 22:18:54 14° SW 22:18:54 14° SW visible
01 Jun 5.7 02:00:31 21° ESE 02:00:31 21° ESE 02:02:34 10° ESE visible
01 Jun 4.4 03:40:44 37° SW 03:42:16 42° SSW 03:48:33 10° SE visible
01 Jun 4.4 21:38:12 10° SSW 21:42:30 29° SSE 21:42:30 29° SSE visible
02 Jun 4.8 03:03:58 35° SSE 03:03:58 35° SSE 03:08:13 10° SE visible
02 Jun 5.3 04:44:13 13° WSW 04:47:51 19° SSW 04:52:23 10° SSE visible
02 Jun 4.5 20:58:27 10° SSW 21:02:32 24° SSE 21:05:45 15° ESE visible
02 Jun 4.6 22:43:00 10° WSW 22:45:58 32° SW 22:45:58 32° SW visible
03 Jun 6.2 02:27:35 11° SE 02:27:35 11° SE 02:27:48 10° SE visible
03 Jun 5.1 04:07:51 22° SSW 04:07:51 22° SSW 04:12:27 10° SSE visible
03 Jun 3.7 22:02:58 10° WSW 22:08:02 51° SSE 22:08:49 47° SE visible
